Back to catalog

COSMOS 2251 DEB

AliveLEO
NORAD 36049·DEBRIS·🇷🇺 Russia

Launched Jun 16, 1993 from Plesetsk Cosmodrome

Loading…

Next Passes (next 24 hours)

TLE

FreshSource: Space-Track

Epoch: Sep 13, 2026, 13:03 UTC

1 36049U 93036AXL 26256.54439645  .00002495  00000-0  47363-3 0  9990
2 36049  74.0298 311.5196 0013291 323.5689  36.4574 14.64719500893851

Track COSMOS 2251 DEB in real time with AllMySat

Download on the App Store